Weather History for Taunton, MA

Change the Weather History Date:

Thursday, August 8, 2013

  Actual Average Record
Temperature  
Mean Temperature 72 °F -  
Max Temperature 81 °F 83 °F 94 °F (1949)
Min Temperature 62 °F 61 °F 46 °F (1948)
Cooling Degree Days 6    
Growing Degree Days 22 (Base 50)    
Moisture  
Dew Point 66 °F    
Average Humidity 78    
Maximum Humidity 91    
Minimum Humidity 64    
Precipitation  
Precipitation 0.00 in - - ()
Sea Level Pressure  
Sea Level Pressure 30.07 in    
Wind  
Wind Speed 6 mph (SSW)    
Max Wind Speed 16 mph    
Max Gust Speed 22 mph    
Visibility 10 miles    
Events Rain    
Averages and records for this station are not official NWS values.
T = Trace of Precipitation, MM = Missing Value Source: NWS Daily Summary

Daily Weather History Graph

Daily Weather History Graph

Search for Another Location

Airport:

Trip Planner

Search our weather history database for the weather conditions in past years. The results will help you decide how hot, cold, wet, or windy it might be!

Date:

Astronomy

Aug. 08, 2013 Rise Set
Actual Time 5:45 AM EDT 7:53 PM EDT
Civil Twilight 5:14 AM EDT 8:24 PM EDT
Nautical Twilight 4:36 AM EDT 9:01 PM EDT
Astronomical Twilight 3:55 AM EDT 9:42 PM EDT
Moon 7:31 AM EDT (8/8) 8:27 PM EDT (8/8)
Length of Visible Light 15h 09m
Length of Day
14h 08m
Waxing Crescent, 3% of the Moon is Illuminated
Aug 8
Waxing Crescent
Aug 14
First Quarter
Aug 20
Full
Aug 28
Last Quarter
Sep 5
New

Hourly Weather History & Observations

Time (EDT) Temp. Heat Index Dew Point Humidity Pressure Visibility Wind Dir Wind Speed Gust Speed Precip Events Conditions
12:52 AM 62.1 °F - 55.9 °F 80% 30.13 in 10.0 mi Calm Calm - N/A   Scattered Clouds
1:52 AM 64.0 °F - 59.0 °F 84% 30.12 in 10.0 mi Calm Calm - N/A   Partly Cloudy
2:52 AM 64.9 °F - 60.1 °F 84% 30.11 in 10.0 mi SE 4.6 mph - N/A   Overcast
3:52 AM 66.0 °F - 61.0 °F 84% 30.09 in 10.0 mi SSW 3.5 mph - N/A   Overcast
4:52 AM 66.9 °F - 62.1 °F 84% 30.09 in 10.0 mi Variable 3.5 mph - N/A   Overcast
5:52 AM 66.9 °F - 62.1 °F 84% 30.09 in 10.0 mi SSE 3.5 mph - N/A   Mostly Cloudy
6:52 AM 68.0 °F - 62.1 °F 81% 30.09 in 10.0 mi SSE 3.5 mph - N/A   Overcast
7:52 AM 69.1 °F - 63.0 °F 81% 30.09 in 10.0 mi South 5.8 mph - 0.00 in Rain Light Rain
8:52 AM 73.0 °F - 66.0 °F 79% 30.09 in 10.0 mi South 8.1 mph - 0.00 in Rain Light Rain
9:52 AM 73.9 °F - 66.9 °F 79% 30.09 in 10.0 mi SSW 10.4 mph 16.1 mph 0.00 in   Overcast
10:47 AM 73.4 °F - 66.2 °F 78% 30.09 in 10.0 mi SSW 13.8 mph 21.9 mph N/A   Overcast
10:52 AM 75.0 °F - 66.0 °F 73% 30.09 in 10.0 mi SSW 11.5 mph 21.9 mph N/A   Overcast
11:42 AM 78.1 °F - 66.9 °F 68% 30.08 in 10.0 mi South 15.0 mph 21.9 mph N/A   Overcast
11:52 AM 78.1 °F - 66.9 °F 68% 30.08 in 10.0 mi SSW 16.1 mph 21.9 mph N/A   Mostly Cloudy
12:52 PM 80.1 °F 82.3 °F 66.9 °F 64% 30.06 in 10.0 mi SW 10.4 mph - N/A   Scattered Clouds
1:52 PM 80.1 °F 82.3 °F 66.9 °F 64% 30.08 in 10.0 mi SSW 11.5 mph 20.7 mph N/A   Scattered Clouds
2:32 PM 78.1 °F - 68.0 °F 71% 30.08 in 10.0 mi SSW 10.4 mph - N/A   Mostly Cloudy
2:52 PM 80.1 °F 82.3 °F 66.9 °F 64% 30.07 in 10.0 mi SW 12.7 mph 20.7 mph N/A   Mostly Cloudy
3:17 PM 80.1 °F 82.3 °F 66.9 °F 64% 30.07 in 10.0 mi SW 11.5 mph - N/A   Scattered Clouds
3:52 PM 79.0 °F - 68.0 °F 69% 30.06 in 10.0 mi South 11.5 mph 18.4 mph N/A   Scattered Clouds
4:01 PM 78.1 °F - 66.9 °F 68% 30.06 in 10.0 mi SSW 11.5 mph - N/A   Mostly Cloudy
4:32 PM 78.1 °F - 66.9 °F 68% 30.05 in 10.0 mi South 9.2 mph - N/A   Scattered Clouds
4:52 PM 81.0 °F 83.8 °F 68.0 °F 65% 30.05 in 10.0 mi South 8.1 mph - N/A   Scattered Clouds
5:00 PM 80.1 °F 82.7 °F 68.0 °F 67% 30.05 in 10.0 mi SSW 8.1 mph - N/A   Mostly Cloudy
5:43 PM 77.0 °F - 66.9 °F 71% 30.04 in 10.0 mi SSW 9.2 mph - N/A   Partly Cloudy
5:52 PM 75.9 °F - 66.9 °F 74% 30.04 in 10.0 mi SW 9.2 mph - N/A   Partly Cloudy
6:52 PM 73.9 °F - 66.9 °F 79% 30.04 in 10.0 mi Variable 4.6 mph - N/A   Clear
7:41 PM 73.0 °F - 68.0 °F 84% 30.05 in 10.0 mi South 5.8 mph - N/A   Mostly Cloudy
7:52 PM 73.0 °F - 68.0 °F 84% 30.05 in 10.0 mi SSW 8.1 mph - N/A   Mostly Cloudy
8:08 PM 73.0 °F - 68.0 °F 84% 30.05 in 10.0 mi South 8.1 mph - N/A   Mostly Cloudy
8:44 PM 73.0 °F - 68.0 °F 84% 30.06 in 10.0 mi South 4.6 mph - N/A   Overcast
8:52 PM 73.0 °F - 68.0 °F 84% 30.06 in 10.0 mi South 5.8 mph - N/A   Overcast
9:52 PM 72.0 °F - 69.1 °F 91% 30.07 in 10.0 mi SSE 5.8 mph - N/A   Overcast
10:04 PM 72.0 °F - 69.1 °F 91% 30.07 in 10.0 mi South 5.8 mph - N/A   Overcast
10:26 PM 72.0 °F - 69.1 °F 91% 30.06 in 10.0 mi Variable 5.8 mph - N/A   Mostly Cloudy
10:52 PM 73.0 °F - 69.1 °F 87% 30.07 in 10.0 mi South 5.8 mph - N/A   Overcast
11:13 PM 73.0 °F - 69.1 °F 87% 30.06 in 10.0 mi Variable 3.5 mph - N/A   Overcast
11:52 PM 73.0 °F - 70.0 °F 90% 30.06 in 10.0 mi South 4.6 mph - N/A   Overcast